Location: Eimen
(51.8766°N, 9.7806°E)
Time: 17:34:55
(UTC+00:00)

Cosmos 1703 - Pass Details

Date: 23 May 2024
Orbit: 485 x 499 km, 82.5° (Epoch: 23 June)

Event Time Altitude Azimuth Distance (km) Brightness Sun altitude
Exits shadow 02:01:34 - 189° (S) 1,764 5.4 -9.1°
Reaches altitude 10° 02:01:43 10° 189° (S) 1,707 5.3 -9.1°
Maximum altitude 02:05:27 90° 99° (E) 508 3.1 -8.8°
Drops below altitude 10° 02:09:13 10° 11° (N) 1,715 6.9 -8.4°
Sets 02:11:21 0° 11° (N) 2,602 8.0 -8.2°
